Exceptional Flight Instruction

Our Team

Safe Aircraft

Our Rentals

Outstanding Customer Service

Contact Us

TAA Flight Training, LLC
1030 PTI Drive
Greensboro, NC 27409

Phone: (336) 369-2804
Fax: (336) 664-6942

AeroCamp Times (M-F 9AM-3PM)
June 20-24, 2016 – OPEN
July 11-15, 2015 – OPEN
July 25-29, 2015 – OPEN
$599/wk per Cadet (Roster size limited)

AeroCamp 2.0 Times (M-T 9AM-3PM)
June 27-30, 2016 – OPEN
August 8-11, 2016 – OPEN
$699/wk per Cadet (Roster size limited)

AeroCamp 3.0 Times (M-W – INCLUDES KITTY HAWK!)
June 13-15, 2016 – OPEN
July 6-8, 2016 – OPEN
$799/wk per Cadet (Roster size limited)

Available data for KGSO from the past 2 hours

metar

  • KGSO 090854Z 27005KT 10SM OVC085 01/M03 A2960 RMK AO2 SLP025 T00111028 56006
  • KGSO 090754Z 31005KT 10SM OVC080 01/M02 A2960 RMK AO2 SLP024 T00111022

taf

  • KGSO 090541Z 0906/1006 31005KT P6SM FEW060 BKN100 FM091600 29010G17KT P6SM SCT050 BKN250